Вернуться в каталог

FASAT B

АктивенНаукаSSO
NORAD 25395·PAYLOAD·🇨🇱 Chile

Запущен Jul 10, 1998 с Baikonur Cosmodrome

Loading…

Ближайшие Пролёты (ближайшие 24 часа)

TLE

СвежийSource: Space-Track

Эпоха: Sep 14, 2026, 10:07 UTC

1 25395U 98043B   26257.42174673  .00000028  00000-0  30872-4 0  9998
2 25395  98.9799 249.5296 0002352 190.4400 169.6731 14.26534918465566

Отслеживайте FASAT B в реальном времени с AllMySat

Download on the App Store